Location: Theydon Bois
(51.6750°N, 0.1050°E)
Time: 23:12:56
(UTC+00:00)

Envisat - Pass Details

Date: 11 December 2019
Orbit: 764 x 766 km, 98.1° (Epoch: 21 January)

Event Time Altitude Azimuth Distance (km) Brightness Sun altitude
Rises 17:00:51 0° 143° (SE) 3,225 6.1 -10.3°
Reaches altitude 10° 17:03:14 10° 137° (SE) 2,303 5.3 -10.6°
Maximum altitude 17:08:02 45° 66° (ENE) 1,046 3.3 -11.3°
Drops below altitude 10° 17:12:52 10° 356° (N) 2,318 5.3 -12.0°
Sets 17:15:15 0° 350° (N) 3,248 6.1 -12.3°
